sat.trackr.live / text

‹ back to catalog

YAOGAN-30 10A

NORAD 48860 · 2021-055A

PAYLOAD ACTIVE UNKNOWN

§ Identity

Operator
Country
PRC
Launch date
2021-06-18
Launch site
XICLF
Launch vehicle
Mass (kg)
RCS (m²)

External: N2YO · Heavens-Above · Gunter

§ Orbital elements

Epoch: 2026-09-09T12:09:00.537408Z

Period
95.81 min
Inclination
34.9966°
Eccentricity
0.0002793
Mean motion
15.03007200 rev/d
Perigee alt
555.7 km
Apogee alt
559.6 km
Semi-major
6,935.8 km
B*
1.4430e-4
RAAN
358.1888°
Arg perigee
84.2043°
Mean anomaly
275.8983°
Rev number
28,587

§ Raw data

YAOGAN-30 10A1 48860U 21055A   26252.50625622  .00001952  00000+0  14430-3 0  99952 48860  34.9966 358.1888 0002793  84.2043 275.8983 15.03007200285878

JSON: /api/v1/satellites/48860 · /tle

For live sub-satellite position, see the globe view (requires WebGL).

§ Visibility from observer

Set your observer location to see the next 7 days of passes ≥ 10°. The values pass through the URL so the page stays shareable.

No JS? Fill the form by hand. The geolocation button needs JavaScript.